[[{"header":{"parameterUnit":"m.s-1","parameterCategory":2,"la1":30.2991,"la2":30.254,"lo1":-89.0895,"lo2":-89.0444,"dy":0.0017,"dx":0.0017,"nx":28,"ny":28,"refTime":"2025-01-15T03:00:00:Z","depth":"0","parameterNumber":2,"parameterNumberName":"U-component_of_CURRENTS"},"data":[0,0,0,0,0,0,0,0,0,0,0,0,0,0,0,0,0,0,0,0,0,0,0,0,0,0,0,0,0,0,0,0,0,0,0,0,0,0,0,0,0,0,0,0,0,0,0,0,0,0,0,0,0,0,0,0,0,0,0.4042,0.4044,0,0.4105,0.4105,0.4105,0.4114,0.4114,0.4114,0.4114,0.4072,0.407,0.4069,0,0,0,0,0,0,0,0,0,0,0,0,0,0.3946,0.3947,0.4042,0.4044,0.4045,0.4105,0.4105,0.4105,0.4114,0.4114,0.4114,0.4115,0.4072,0.4071,0.4069,0,0,0,0,0,0,0,0,0,0,0,0,0,0.3989,0.3947,0.4042,0.4062,0.4065,0.4105,0.4105,0.4105,0.4114,0.4114,0.4114,0.4115,0.4073,0.4071,0.4069,0.4054,0,0,0.4063,0.4062,0,0,0,0,0,0,0,0,0.3986,0.3991,0.4058,0.4061,0.4065,0.4109,0.4056,0.4086,0.4114,0.4087,0.4114,0.4115,0.4079,0.4077,0.4079,0.4052,0.405,0.4063,0.4062,0.4061,0.4061,0,0,0,0,0,0,0,0.3983,0.3989,0.4059,0.406,0.4064,0.4075,0.408,0.4062,0.4073,0.409,0.4092,0.4112,0.4079,0.4081,0.4078,0.4049,0.4063,0.4061,0.406,0.4059,0.4054,0.4055,0,0,0,0,0,0,0.399,0.3986,0.4057,0.4062,0.4034,0.4077,0.4082,0.4088,0.4076,0.4078,0.4112,0.4112,0.4084,0.408,0.4076,0.4078,0.4061,0.4059,0.4058,0.4053,0.4054,0.4055,0,0,0,0,0,0,0.3987,0.3995,0.4055,0.4032,0.4042,0.4079,0.4085,0.4089,0.4095,0.4095,0.4093,0.4114,0.4084,0.4079,0.4073,0.4075,0.4058,0.4057,0.4052,0.4053,0.4055,0.4068,0,0,0,0,0,0,0.3984,0.3993,0.3991,0.4032,0.4044,0.407,0.4086,0.4091,0.411,0.4111,0.4097,0.4093,0.4083,0.4076,0.4071,0.4072,0.4055,0.4051,0.4053,0.4054,0.4066,0.407,0.4073,0,0,0,0,0,0.398,0.3967,0.399,0.3999,0.4041,0.407,0.4075,0.4098,0.411,0.4104,0.4111,0.4094,0.4085,0.4075,0.4069,0.407,0.405,0.4052,0.4054,0.4065,0.4069,0.4072,0,0,0,0,0,0,0.3903,0.3969,0.3994,0.3997,0.4034,0.4074,0.4074,0.4099,0.4101,0.4099,0.4098,0.4095,0.4093,0.4084,0.4073,0.4078,0.4067,0.4068,0.4077,0.4081,0.4084,0.4064,0.4054,0,0,0,0,0,0.3894,0.3908,0.3971,0.3969,0.3991,0.4036,0.405,0.4071,0.4089,0.409,0.409,0.4092,0.4097,0.4091,0.4087,0.4079,0.4085,0.4081,0.4084,0.4087,0.4069,0.4091,0.4094,0.4062,0.4062,0.4062,0,0,0.3863,0.3901,0.3908,0.3956,0.3985,0.4011,0.4041,0.4061,0.4076,0.4083,0.4085,0.4097,0.41,0.4101,0.41,0.4091,0.4106,0.409,0.4092,0.4072,0.4094,0.4096,0.4099,0.4064,0.4064,0.4063,0,0,0.3815,0.3846,0.3851,0.3888,0.3945,0.3979,0.3989,0.4037,0.4049,0.4064,0.4083,0.4098,0.4094,0.4106,0.411,0.4126,0.4124,0.4131,0.4123,0.4145,0.4147,0.4149,0.4186,0.4191,0.413,0.413,0.413,0,0.3777,0.3795,0.3852,0.3874,0.3898,0.3967,0.3976,0.4006,0.4043,0.4051,0.406,0.4091,0.4095,0.4112,0.4125,0.413,0.4148,0.4106,0.4147,0.4149,0.4151,0.4188,0.4193,0.4131,0.4131,0.4131,0.4131,0,0.3749,0.3765,0.3768,0.3827,0.3856,0.387,0.3939,0.3958,0.399,0.4025,0.4048,0.4073,0.4091,0.4107,0.4117,0.4139,0.4153,0.4151,0.4133,0.4155,0.4193,0.4199,0.4132,0.4132,0.4132,0.4132,0,0,0.3649,0.3734,0.3731,0.3753,0.3832,0.3849,0.3882,0.3926,0.3959,0.3989,0.4021,0.4043,0.4074,0.4082,0.4112,0.4132,0.4177,0.4145,0.4146,0.4173,0.4241,0.4241,0.4247,0.4184,0.4184,0.4185,0.4272,0,0.3606,0.3626,0.3683,0.3697,0.3716,0.3791,0.382,0.3871,0.3931,0.3983,0.4019,0.4066,0.4063,0.4096,0.411,0.4175,0.4187,0.4154,0.4222,0.4224,0.4214,0.4251,0.411,0.4175,0.4277,0.4278,0.4279,0,0.3558,0.3579,0.3583,0.3646,0.3661,0.3683,0.375,0.3792,0.3889,0.3945,0.3997,0.405,0.4103,0.4101,0.4175,0.4158,0.4184,0.422,0.4224,0.4214,0.4232,0.4166,0.418,0.4091,0.4287,0.4286,0.4286,0,0.3456,0.3505,0.35,0.3522,0.3608,0.3615,0.3663,0.3762,0.3826,0.3937,0.4005,0.4064,0.4131,0.4155,0.4236,0.4209,0.4326,0.43,0.4314,0.4316,0.4201,0.4191,0.4121,0.4316,0.4316,0.4315,0.4315,0,0.3386,0.338,0.3453,0.3452,0.3465,0.3543,0.3588,0.3668,0.3797,0.3874,0.3978,0.406,0.4147,0.4231,0.4256,0.4324,0.434,0.4314,0.4334,0.4206,0.4197,0.4117,0.4074,0.4319,0.4318,0.4317,0.4317,0,0.3282,0.3325,0.3335,0.34,0.3424,0.3434,0.3561,0.3605,0.3746,0.3858,0.39,0.4086,0.4202,0.4289,0.4383,0.4373,0.4314,0.4433,0.4293,0.4294,0.4189,0.4153,0.3971,0.3846,0.4444,0.4444,0.4445,0,0.3229,0.3223,0.3288,0.3297,0.3326,0.3369,0.3406,0.3562,0.3636,0.3861,0.3905,0.4086,0.4198,0.4375,0.4411,0.4474,0.4329,0.4354,0.4254,0.4165,0.414,0.3985,0.3879,0.4122,0.412,0.4118,0.4116,0,0.3134,0.3162,0.3174,0.3205,0.3231,0.3272,0.3343,0.3405,0.3579,0.3692,0.3855,0.3975,0.4197,0.4238,0.4363,0.4369,0.4152,0.4317,0.4242,0.3892,0.3697,0.3593,0.4107,0.41,0.4101,0.4102,0.4103,0.4104,0.3061,0.3053,0.3079,0.3097,0.3127,0.3143,0.3135,0.3241,0.3339,0.3475,0.3688,0.3811,0.4017,0.4192,0.4187,0.411,0.406,0.3974,0.3947,0.3807,0.3629,0.4125,0.4132,0.4133,0.4135,0.4136,0.4137,0,0.2954,0.2958,0.2971,0.2972,0.2945,0.3013,0.3061,0.3035,0.3075,0.3278,0.341,0.3596,0.3698,0.3835,0.3888,0.3762,0.3571,0.3649,0.3373,0.3293,0.3758,0.369,0.3578,0.3578,0.3578,0.3578,0.3578,0.3579,0.2895,0.2856,0.2862,0.278,0.2778,0.2698,0.2688,0.2698,0.2799,0.2895,0.3006,0.3173,0.3502,0.3676,0.3603,0.351,0.3215,0.3084,0.3059,0.3393,0.3419,0.3444,0.3369,0.3192,0.3191,0.2446,0.244,0.2436]},{"header":{"parameterUnit":"m.s-1","parameterCategory":2,"la1":30.2991,"la2":30.254,"lo1":-89.0895,"lo2":-89.0444,"dy":0.0017,"dx":0.0017,"nx":28,"ny":28,"refTime":"2025-01-15T03:00:00:Z","depth":"0","parameterNumber":3,"parameterNumberName":"V-component_of_CURRENTS"},"data":[0,0,0,0,0,0,0,0,0,0,0,0,0,0,0,0,0,0,0,0,0,0,0,0,0,0,0,0,0,0,0,0,0,0,0,0,0,0,0,0,0,0,0,0,0,0,0,0,0,0,0,0,0,0,0,0,0,0,-0.0357,-0.0357,0,-0.0446,-0.0447,-0.0448,-0.0527,-0.0527,-0.0528,-0.0529,-0.0641,-0.0643,-0.0646,0,0,0,0,0,0,0,0,0,0,0,0,0,-0.0334,-0.0334,-0.0357,-0.0358,-0.0359,-0.0446,-0.0447,-0.0448,-0.0526,-0.0527,-0.0528,-0.0529,-0.064,-0.0643,-0.0646,0,0,0,0,0,0,0,0,0,0,0,0,0,-0.0377,-0.0334,-0.0356,-0.0407,-0.0412,-0.0445,-0.0447,-0.0449,-0.0526,-0.0527,-0.0529,-0.053,-0.0639,-0.0643,-0.0646,-0.0644,0,0,-0.0656,-0.0658,0,0,0,0,0,0,0,0,-0.0374,-0.0378,-0.0399,-0.0404,-0.041,-0.0475,-0.048,-0.0515,-0.0526,-0.0484,-0.0529,-0.053,-0.0586,-0.0594,-0.061,-0.0649,-0.0654,-0.0657,-0.0659,-0.066,-0.0661,0,0,0,0,0,0,0,-0.0371,-0.0375,-0.0393,-0.0399,-0.0406,-0.0453,-0.046,-0.0488,-0.0529,-0.0488,-0.0494,-0.0501,-0.059,-0.0606,-0.0613,-0.0655,-0.0657,-0.066,-0.0662,-0.0663,-0.0718,-0.0718,0,0,0,0,0,0,-0.0352,-0.0371,-0.039,-0.0396,-0.0393,-0.0452,-0.0459,-0.0454,-0.0528,-0.054,-0.05,-0.0504,-0.06,-0.0609,-0.0617,-0.06,-0.066,-0.0663,-0.0665,-0.0719,-0.0718,-0.0718,0,0,0,0,0,0,-0.035,-0.0352,-0.0387,-0.0386,-0.0393,-0.045,-0.0444,-0.0455,-0.0469,-0.0537,-0.055,-0.0502,-0.0601,-0.0612,-0.0631,-0.0606,-0.0665,-0.0668,-0.072,-0.0719,-0.0718,-0.0577,0,0,0,0,0,0,-0.0349,-0.035,-0.0338,-0.0383,-0.0392,-0.0387,-0.0443,-0.0456,-0.0472,-0.0478,-0.0543,-0.0555,-0.0603,-0.0625,-0.0634,-0.0611,-0.0671,-0.072,-0.0719,-0.0718,-0.0583,-0.0572,-0.0562,0,0,0,0,0,-0.0348,-0.0312,-0.0336,-0.0339,-0.0373,-0.0385,-0.0393,-0.044,-0.047,-0.0461,-0.0509,-0.0553,-0.0626,-0.0626,-0.0637,-0.0615,-0.0721,-0.072,-0.0718,-0.0587,-0.0574,-0.0563,0,0,0,0,0,0,-0.028,-0.0318,-0.0345,-0.0319,-0.0346,-0.0398,-0.0392,-0.0428,-0.0459,-0.0466,-0.0537,-0.0551,-0.0563,-0.0608,-0.0608,-0.0632,-0.0684,-0.0685,-0.0581,-0.0569,-0.0559,-0.0517,-0.0673,0,0,0,0,0,-0.0262,-0.0255,-0.0296,-0.0275,-0.0285,-0.0339,-0.035,-0.038,-0.0416,-0.0432,-0.048,-0.0532,-0.0566,-0.0581,-0.0623,-0.0623,-0.0661,-0.0622,-0.0611,-0.0602,-0.0578,-0.0615,-0.0605,-0.0713,-0.0714,-0.0714,0,0,-0.0229,-0.0249,-0.0244,-0.0262,-0.0289,-0.0277,-0.0348,-0.035,-0.034,-0.0437,-0.0436,-0.0497,-0.0561,-0.0568,-0.0578,-0.0599,-0.0592,-0.06,-0.0592,-0.0572,-0.0612,-0.0601,-0.0592,-0.0713,-0.0713,-0.0713,0,0,-0.0158,-0.0177,-0.0152,-0.0167,-0.0196,-0.0223,-0.0217,-0.0264,-0.0285,-0.0296,-0.0364,-0.0398,-0.0458,-0.049,-0.0516,-0.0472,-0.0541,-0.0501,-0.0406,-0.0441,-0.0432,-0.0424,-0.0454,-0.045,-0.049,-0.0489,-0.0489,0,-0.0117,-0.0091,-0.0143,-0.0123,-0.0118,-0.0189,-0.0151,-0.0175,-0.0222,-0.0229,-0.0278,-0.0361,-0.0415,-0.0415,-0.0404,-0.0445,-0.048,-0.0441,-0.0425,-0.0418,-0.0412,-0.0446,-0.0443,-0.0482,-0.0483,-0.0484,-0.0485,0,-0.0036,-0.0014,0.0005,0.0007,0.0006,0.003,-0.001,-0.0018,-0.0062,-0.0097,-0.0123,-0.0205,-0.0252,-0.0281,-0.0327,-0.0313,-0.0356,-0.0409,-0.0445,-0.0392,-0.0432,-0.0431,-0.0472,-0.0475,-0.0477,-0.0479,0,0,0.0063,0.0062,0.0072,0.0089,0.0078,0.0088,0.0112,0.0112,0.0128,0.0059,0.0069,0.0001,-0.0062,-0.0095,-0.0167,-0.0195,-0.0189,-0.0272,-0.0277,-0.0282,-0.0264,-0.0282,-0.0285,-0.0243,-0.0242,-0.0241,-0.0305,0,0.0146,0.0213,0.0193,0.0266,0.0296,0.025,0.0273,0.0259,0.023,0.0218,0.013,0.0104,0.0015,-0.0012,-0.0049,-0.0161,-0.0183,-0.0167,-0.0331,-0.0335,-0.0343,-0.0283,-0.0256,-0.0309,-0.0305,-0.0305,-0.0305,0,0.0236,0.0267,0.0348,0.0377,0.0387,0.0415,0.044,0.0455,0.0422,0.0394,0.0356,0.0271,0.0225,0.0128,-0.0001,0.001,-0.0101,-0.0192,-0.0198,-0.0259,-0.0353,-0.0366,-0.031,-0.0495,-0.0306,-0.0305,-0.0305,0,0.0319,0.0381,0.0449,0.0461,0.048,0.0502,0.0514,0.0504,0.0538,0.051,0.0518,0.0427,0.0383,0.0241,0.0053,0.0025,-0.0101,-0.0174,-0.0288,-0.0292,-0.0321,-0.0327,-0.0444,-0.0249,-0.0249,-0.0249,-0.0249,0,0.0415,0.0469,0.0487,0.0519,0.0599,0.0578,0.0657,0.0651,0.0667,0.0724,0.0614,0.0635,0.0409,0.0297,0.0112,-0.0073,-0.0058,-0.0245,-0.0299,-0.0273,-0.0274,-0.0482,-0.0608,-0.0251,-0.0251,-0.025,-0.025,0,0.0488,0.0502,0.0576,0.0614,0.0635,0.0686,0.0759,0.0815,0.0811,0.0883,0.088,0.08,0.0663,0.043,0.0199,0.0019,-0.0281,-0.0247,-0.0195,-0.024,-0.0521,-0.064,-0.0833,-0.0904,-0.0374,-0.0374,-0.0375,0,0.0529,0.0574,0.0648,0.0702,0.0721,0.0798,0.0856,0.0886,0.0966,0.0995,0.1045,0.0937,0.09,0.056,0.0224,-0.0085,-0.029,-0.0282,-0.0328,-0.0504,-0.0678,-0.0773,-0.0825,-0.0318,-0.0318,-0.0318,-0.0318,0,0.0606,0.0625,0.0684,0.0795,0.0869,0.0972,0.1062,0.115,0.1192,0.126,0.133,0.1302,0.0984,0.0705,0.0265,0.0026,-0.0411,-0.0293,-0.0491,-0.0639,-0.0736,-0.0839,-0.0315,-0.0318,-0.0318,-0.0318,-0.0318,-0.0318,0.0658,0.0713,0.0788,0.0898,0.0995,0.1125,0.1223,0.1341,0.1482,0.1596,0.1558,0.1568,0.1132,0.0557,0.021,-0.0402,-0.0424,-0.0583,-0.0711,-0.0789,-0.0858,-0.0323,-0.0382,-0.0382,-0.0382,-0.0383,-0.0383,0,0.0725,0.0787,0.089,0.1016,0.1135,0.1172,0.1351,0.1463,0.1644,0.1764,0.1837,0.1644,0.1114,0.0533,-0.0277,-0.0718,-0.089,-0.0978,-0.1109,-0.114,-0.067,-0.0667,-0.077,-0.077,-0.077,-0.0769,-0.0769,-0.0769,0.076,0.0863,0.0916,0.1113,0.1207,0.1368,0.1475,0.165,0.1786,0.1945,0.1976,0.1964,0.1516,0.0075,-0.0902,-0.1139,-0.1451,-0.1545,-0.1694,-0.1386,-0.1359,-0.1333,-0.1357,-0.1604,-0.1605,-0.2079,-0.2084,-0.2088]}],[{"header":{"parameterUnit":"m.s-1","parameterCategory":2,"la1":30.2991,"la2":30.254,"lo1":-89.0895,"lo2":-89.0444,"dy":0.0017,"dx":0.0017,"nx":28,"ny":28,"refTime":"2025-01-15T03:00:00:Z","depth":"2","parameterNumber":2,"parameterNumberName":"U-component_of_CURRENTS"},"data":[0,0,0,0,0,0,0,0,0,0,0,0,0,0,0,0,0,0,0,0,0,0,0,0,0,0,0,0,0,0,0,0,0,0,0,0,0,0,0,0,0,0,0,0,0,0,0,0,0,0,0,0,0,0,0,0,0,0,0.3243,0.3243,0,0.3332,0.3334,0.3335,0.3389,0.3389,0.3389,0.3388,0.3358,0.3358,0.3357,0,0,0,0,0,0,0,0,0,0,0,0,0,0.3183,0.3184,0.3243,0.3243,0.3244,0.3332,0.3334,0.3336,0.3389,0.3389,0.3388,0.3388,0.3358,0.3358,0.3357,0,0,0,0,0,0,0,0,0,0,0,0,0,0.324,0.3184,0.3242,0.3276,0.328,0.3332,0.3334,0.3336,0.3389,0.3389,0.3388,0.3388,0.3358,0.3358,0.3357,0.3362,0,0,0.3355,0.3354,0,0,0,0,0,0,0,0,0.3237,0.3243,0.3271,0.3274,0.3278,0.3343,0.3302,0.3337,0.339,0.3355,0.3388,0.3388,0.3338,0.3339,0.3368,0.3361,0.336,0.3355,0.3354,0.3354,0.3354,0,0,0,0,0,0,0,0.3233,0.324,0.3285,0.3271,0.3276,0.3309,0.3317,0.331,0.3351,0.3358,0.336,0.336,0.334,0.3369,0.3367,0.3359,0.3355,0.3354,0.3353,0.3353,0.3423,0.3425,0,0,0,0,0,0,0.3206,0.3236,0.3282,0.3287,0.3248,0.3309,0.3319,0.3328,0.3354,0.3356,0.336,0.3362,0.337,0.3368,0.3366,0.3391,0.3354,0.3353,0.3353,0.3421,0.3423,0.3426,0,0,0,0,0,0,0.3205,0.321,0.3278,0.3258,0.3268,0.331,0.3321,0.333,0.3364,0.3356,0.3357,0.3385,0.337,0.3367,0.3371,0.3388,0.3353,0.3352,0.3418,0.3421,0.3425,0.3427,0,0,0,0,0,0,0.3203,0.3209,0.3232,0.3256,0.3268,0.3302,0.3321,0.3332,0.3361,0.3365,0.3377,0.3374,0.3369,0.3373,0.3371,0.3387,0.3352,0.3415,0.3419,0.3424,0.3424,0.343,0.3436,0,0,0,0,0,0.3201,0.3219,0.3233,0.3239,0.329,0.3301,0.3312,0.3344,0.3363,0.3375,0.3392,0.3374,0.34,0.3373,0.337,0.3387,0.3413,0.3418,0.3423,0.3422,0.3429,0.3436,0,0,0,0,0,0,0.3186,0.3226,0.3242,0.3268,0.3281,0.3308,0.333,0.3349,0.338,0.339,0.3385,0.3383,0.34,0.3401,0.3372,0.3428,0.341,0.3415,0.3411,0.3417,0.3423,0.3438,0.3351,0,0,0,0,0,0.3196,0.3223,0.325,0.326,0.3277,0.3309,0.3327,0.3346,0.3363,0.338,0.3386,0.3406,0.3423,0.3423,0.3437,0.345,0.3465,0.347,0.3475,0.3479,0.3496,0.3529,0.3538,0.3443,0.3443,0.3443,0,0,0.3185,0.3209,0.3223,0.326,0.3282,0.331,0.332,0.3345,0.3371,0.3366,0.3408,0.3418,0.3433,0.3459,0.3468,0.3455,0.3518,0.3486,0.3489,0.3504,0.3535,0.3544,0.3552,0.3446,0.3446,0.3445,0,0,0.3163,0.3205,0.3227,0.3252,0.3287,0.3313,0.3318,0.3358,0.3386,0.3415,0.3433,0.3456,0.3473,0.3495,0.3506,0.3554,0.3547,0.3563,0.3593,0.3625,0.3632,0.3638,0.367,0.368,0.3563,0.3563,0.3563,0,0.3158,0.3187,0.3227,0.3255,0.3279,0.3313,0.3338,0.3375,0.3407,0.343,0.3427,0.3496,0.3497,0.354,0.3566,0.3563,0.3582,0.3554,0.3628,0.3635,0.3642,0.3673,0.3683,0.3564,0.3563,0.3563,0.3563,0,0.3151,0.3191,0.3199,0.3258,0.3288,0.3309,0.336,0.3395,0.343,0.3462,0.3513,0.3534,0.3573,0.3583,0.3585,0.3644,0.3643,0.3627,0.3599,0.3651,0.3681,0.3692,0.3565,0.3564,0.3564,0.3564,0,0,0.3103,0.3187,0.3192,0.3222,0.33,0.331,0.3371,0.3426,0.3469,0.351,0.3562,0.3603,0.3624,0.3642,0.3654,0.3686,0.3744,0.3681,0.3683,0.3694,0.3821,0.3787,0.3795,0.3734,0.3736,0.3738,0.3822,0,0.3092,0.3136,0.3191,0.3232,0.3265,0.3332,0.3378,0.3434,0.3493,0.3554,0.3597,0.3651,0.3644,0.3671,0.3702,0.3744,0.3774,0.3724,0.3788,0.379,0.3737,0.3807,0.351,0.3558,0.3832,0.3834,0.3835,0,0.3078,0.3112,0.3154,0.3231,0.3252,0.3284,0.3373,0.3423,0.3524,0.3578,0.3647,0.3687,0.3762,0.3742,0.383,0.3799,0.3817,0.3839,0.3842,0.3819,0.3777,0.3554,0.3566,0.3852,0.3851,0.385,0.3848,0,0.3012,0.3088,0.3118,0.3144,0.3236,0.3266,0.3318,0.342,0.3488,0.3605,0.367,0.3748,0.381,0.3846,0.3903,0.3871,0.3997,0.3948,0.3933,0.3931,0.3698,0.3672,0.4004,0.4004,0.4004,0.4003,0.4003,0,0.2984,0.3006,0.3086,0.3099,0.3141,0.3218,0.3284,0.3364,0.3493,0.3568,0.3674,0.3754,0.3842,0.392,0.3937,0.3987,0.4023,0.3965,0.3959,0.3694,0.3668,0.3936,0.3927,0.4007,0.4006,0.4005,0.4005,0,0.2912,0.2967,0.3002,0.3085,0.3114,0.3139,0.327,0.3319,0.3459,0.3569,0.3614,0.379,0.3895,0.3973,0.4061,0.404,0.4081,0.408,0.3775,0.3732,0.398,0.397,0.4066,0.4066,0.4065,0.4065,0.4065,0,0.2879,0.289,0.2972,0.299,0.3028,0.3089,0.3133,0.3287,0.3357,0.3573,0.3615,0.3786,0.3873,0.4022,0.403,0.4071,0.411,0.3802,0.3686,0.4006,0.3991,0.3982,0.3973,0.3374,0.3369,0.3364,0.336,0,0.2812,0.2844,0.287,0.2914,0.2953,0.3002,0.3082,0.3138,0.3305,0.3412,0.3555,0.3653,0.3827,0.376,0.3848,0.382,0.3773,0.3709,0.4119,0.3419,0.3364,0.3346,0.3358,0.3318,0.3322,0.3325,0.3327,0.3329,0.2754,0.2754,0.2791,0.2821,0.2863,0.2882,0.2879,0.2979,0.3068,0.318,0.3366,0.3413,0.3505,0.3502,0.3427,0.3377,0.3626,0.3441,0.345,0.3466,0.3385,0.3335,0.3267,0.3271,0.3274,0.3277,0.328,0,0.2665,0.2675,0.2697,0.2711,0.2695,0.2769,0.2813,0.2782,0.2811,0.2958,0.3057,0.2884,0.2887,0.2965,0.2844,0.2884,0.2803,0.275,0.2596,0.2644,0.2686,0.2558,0.2224,0.222,0.2216,0.2213,0,0,0.2617,0.2589,0.2596,0.2532,0.2542,0.2481,0.247,0.246,0.2517,0.251,0.2525,0.2761,0.2896,0.2505,0.2489,0.2324,0.2449,0.2241,0.3101,0.2969,0.3004,0.3118,0.2983,0,0,0,0,0]},{"header":{"parameterUnit":"m.s-1","parameterCategory":2,"la1":30.2991,"la2":30.254,"lo1":-89.0895,"lo2":-89.0444,"dy":0.0017,"dx":0.0017,"nx":28,"ny":28,"refTime":"2025-01-15T03:00:00:Z","depth":"2","parameterNumber":3,"parameterNumberName":"V-component_of_CURRENTS"},"data":[0,0,0,0,0,0,0,0,0,0,0,0,0,0,0,0,0,0,0,0,0,0,0,0,0,0,0,0,0,0,0,0,0,0,0,0,0,0,0,0,0,0,0,0,0,0,0,0,0,0,0,0,0,0,0,0,0,0,0.0181,0.0181,0,0.0096,0.0095,0.0093,0.0028,0.0028,0.0027,0.0027,-0.0047,-0.0048,-0.005,0,0,0,0,0,0,0,0,0,0,0,0,0,0.0211,0.0211,0.0181,0.0181,0.018,0.0096,0.0094,0.0093,0.0028,0.0028,0.0027,0.0027,-0.0046,-0.0048,-0.005,0,0,0,0,0,0,0,0,0,0,0,0,0,0.0165,0.0211,0.0182,0.0141,0.0137,0.0096,0.0094,0.0092,0.0028,0.0028,0.0027,0.0027,-0.0045,-0.0048,-0.0051,-0.0063,0,0,-0.0059,-0.006,0,0,0,0,0,0,0,0,0.0167,0.0163,0.0148,0.0144,0.0139,0.0077,0.0078,0.0043,0.0028,0.0064,0.0027,0.0027,-0.0001,-0.0007,-0.003,-0.0066,-0.007,-0.0059,-0.0061,-0.0062,-0.0063,0,0,0,0,0,0,0,0.0171,0.0166,0.0142,0.0147,0.0142,0.0101,0.0095,0.007,0.003,0.0061,0.0057,0.0056,-0.0004,-0.0027,-0.0032,-0.0071,-0.0059,-0.0062,-0.0063,-0.0064,-0.0142,-0.0143,0,0,0,0,0,0,0.0196,0.0169,0.0145,0.014,0.0159,0.0102,0.0094,0.0093,0.003,0.0022,0.0056,0.0053,-0.0023,-0.0029,-0.0035,-0.0038,-0.0062,-0.0065,-0.0066,-0.0142,-0.0142,-0.0143,0,0,0,0,0,0,0.0197,0.0194,0.0149,0.0157,0.0149,0.0103,0.0101,0.0092,0.007,0.0027,0.0018,0.0045,-0.0023,-0.0031,-0.0049,-0.0042,-0.0066,-0.0068,-0.0141,-0.0142,-0.0143,-0.0054,0,0,0,0,0,0,0.0198,0.0195,0.0194,0.0159,0.0149,0.0137,0.0102,0.009,0.0072,0.0067,0.0015,0.0008,-0.0024,-0.0045,-0.0052,-0.0046,-0.0071,-0.0141,-0.0142,-0.0142,-0.0057,-0.0052,-0.0048,0,0,0,0,0,0.0199,0.0207,0.0195,0.0192,0.0153,0.0138,0.0129,0.0091,0.0072,0.0068,0.0034,0.0009,-0.0056,-0.0046,-0.0055,-0.005,-0.014,-0.0141,-0.0142,-0.0059,-0.0053,-0.0048,0,0,0,0,0,0,0.0221,0.0201,0.0186,0.0188,0.017,0.0129,0.012,0.0097,0.0064,0.0058,0.0014,0.0004,-0.0012,-0.0047,-0.0036,-0.008,-0.0106,-0.0109,-0.004,-0.0035,-0.0031,-0.0011,-0.0073,0,0,0,0,0,0.0228,0.0229,0.0203,0.0207,0.0199,0.0159,0.0145,0.0124,0.0096,0.0079,0.0045,0.0004,-0.0025,-0.0039,-0.0072,-0.0088,-0.0123,-0.0097,-0.0092,-0.0088,-0.0081,-0.0127,-0.0125,-0.0146,-0.0146,-0.0146,0,0,0.0239,0.0229,0.0228,0.0211,0.019,0.0191,0.0149,0.0138,0.0137,0.0079,0.0063,0.0024,-0.0025,-0.0044,-0.0056,-0.007,-0.0101,-0.0089,-0.0085,-0.008,-0.0128,-0.0126,-0.0124,-0.0147,-0.0146,-0.0146,0,0,0.0271,0.0252,0.0263,0.0252,0.0234,0.0213,0.0216,0.018,0.0159,0.0142,0.0098,0.0067,0.002,-0.0013,-0.0035,-0.0028,-0.0073,-0.0046,-0.0005,-0.005,-0.0048,-0.0046,-0.0081,-0.0083,-0.0045,-0.0045,-0.0045,0,0.0283,0.0297,0.0265,0.0274,0.0276,0.0232,0.0249,0.0222,0.0185,0.0176,0.015,0.0076,0.0035,0.0014,0.0012,-0.0015,-0.0046,-0.0014,-0.0041,-0.004,-0.0041,-0.0076,-0.008,-0.0041,-0.0041,-0.0042,-0.0042,0,0.0324,0.0332,0.034,0.034,0.0335,0.0344,0.0315,0.03,0.027,0.0243,0.0212,0.0148,0.0107,0.0082,0.005,0.0028,0.0005,-0.0024,-0.0045,-0.0032,-0.0072,-0.0077,-0.0035,-0.0036,-0.0038,-0.0039,0,0,0.0362,0.0368,0.0371,0.0388,0.0373,0.038,0.0377,0.0367,0.0375,0.0315,0.0314,0.0244,0.0205,0.0175,0.0123,0.0078,0.0049,0.0033,0.0028,0.0016,-0.0042,-0.0059,-0.0067,0.0017,0.0017,0.0016,-0.0065,0,0.0405,0.0447,0.0435,0.0479,0.0499,0.0466,0.047,0.0452,0.0429,0.0414,0.0334,0.0314,0.0242,0.0228,0.0171,0.0084,0.0037,0.0074,-0.0068,-0.0072,-0.0074,-0.0074,-0.0044,-0.0114,-0.0071,-0.0072,-0.0073,0,0.0452,0.0477,0.0525,0.0555,0.056,0.0573,0.0586,0.0588,0.055,0.0532,0.0488,0.0427,0.0358,0.0292,0.0148,0.0176,0.0076,-0.0002,-0.0008,-0.0057,-0.01,-0.0124,-0.0126,-0.0083,-0.0082,-0.0081,-0.008,0,0.0504,0.0544,0.059,0.0599,0.0616,0.0628,0.0635,0.062,0.0647,0.0612,0.0625,0.0521,0.0482,0.034,0.0175,0.0163,0.0013,-0.0027,-0.014,-0.0142,-0.0162,-0.0164,-0.0134,-0.0134,-0.0134,-0.0134,-0.0134,0,0.0559,0.0597,0.0618,0.0643,0.0704,0.0688,0.0749,0.0739,0.0748,0.0794,0.0693,0.0704,0.0492,0.038,0.0212,0.0028,0.0038,-0.0129,-0.0165,-0.0131,-0.013,-0.0142,-0.0142,-0.0137,-0.0136,-0.0136,-0.0135,0,0.0608,0.0618,0.0677,0.071,0.073,0.0772,0.0839,0.0886,0.0878,0.0935,0.0931,0.0843,0.0701,0.0484,0.0258,0.0094,-0.0092,-0.0163,-0.0104,-0.0131,-0.0228,-0.0222,-0.0296,-0.0298,-0.0299,-0.03,-0.03,0,0.0635,0.067,0.0737,0.0784,0.0802,0.087,0.0923,0.0949,0.1016,0.1029,0.1068,0.0951,0.0895,0.0559,0.0249,-0.0044,-0.0089,-0.0219,-0.0249,-0.0217,-0.0245,-0.0238,-0.0231,-0.0242,-0.0242,-0.0242,-0.0242,0,0.0693,0.0711,0.0762,0.0861,0.0929,0.1023,0.1103,0.1178,0.1211,0.1261,0.1297,0.1251,0.0938,0.0652,0.0243,0.0037,-0.0173,-0.0233,-0.0219,-0.0201,-0.0172,-0.0196,-0.0191,-0.0244,-0.0244,-0.0244,-0.0243,-0.0243,0.0735,0.0782,0.0849,0.0947,0.1036,0.1152,0.1239,0.1337,0.1449,0.1521,0.1471,0.1411,0.1077,0.0568,0.0206,-0.0184,-0.0168,-0.0308,-0.0305,-0.0303,-0.0277,-0.0251,-0.0333,-0.0333,-0.0334,-0.0334,-0.0334,0,0.0789,0.0843,0.0934,0.1046,0.1153,0.1192,0.1347,0.1434,0.1573,0.1635,0.1664,0.135,0.1028,0.0635,0.0067,-0.0268,-0.03,-0.0383,-0.0341,-0.0336,-0.0333,-0.0308,-0.0374,-0.0375,-0.0376,-0.0377,0,0,0.0816,0.0905,0.0951,0.1123,0.1209,0.1354,0.1445,0.1576,0.1658,0.1723,0.1696,0.1632,0.1155,0.0743,0.0284,-0.0045,-0.0119,-0.0119,-0.005,0.0059,0.0066,-0.0252,-0.0203,0,0,0,0,0]}],[{"header":{"parameterUnit":"m.s-1","parameterCategory":2,"la1":30.2991,"la2":30.254,"lo1":-89.0895,"lo2":-89.0444,"dy":0.0017,"dx":0.0017,"nx":28,"ny":28,"refTime":"2025-01-15T03:00:00:Z","depth":"4","parameterNumber":2,"parameterNumberName":"U-component_of_CURRENTS"},"data":[0,0,0,0,0,0,0,0,0,0,0,0,0,0,0,0,0,0,0,0,0,0,0,0,0,0,0,0,0,0,0,0,0,0,0,0,0,0,0,0,0,0,0,0,0,0,0,0,0,0,0,0,0,0,0,0,0,0,0.1989,0.199,0,0.2067,0.2067,0.2068,0.2125,0.2125,0.2126,0.2127,0.2215,0.2217,0.2218,0,0,0,0,0,0,0,0,0,0,0,0,0,0.187,0.1872,0.1989,0.199,0.1991,0.2067,0.2067,0.2068,0.2124,0.2125,0.2126,0.2127,0.2215,0.2217,0.2219,0,0,0,0,0,0,0,0,0,0,0,0,0,0.193,0.1873,0.1989,0.203,0.2035,0.2066,0.2067,0.2068,0.2124,0.2125,0.2126,0.2127,0.2214,0.2216,0.2219,0.2213,0,0,0.2227,0.2228,0,0,0,0,0,0,0,0,0.1926,0.1934,0.2023,0.2028,0.2033,0.2089,0.2058,0.2118,0.2124,0.2088,0.2127,0.2128,0.2175,0.2181,0.2189,0.2217,0.2221,0.2227,0.2228,0.2229,0.223,0,0,0,0,0,0,0,0.1922,0.1931,0.2017,0.2024,0.203,0.2039,0.2048,0.2069,0.2123,0.2091,0.2096,0.2108,0.2177,0.2187,0.2192,0.2222,0.2227,0.2229,0.2231,0.2232,0.2386,0.2388,0,0,0,0,0,0,0.1918,0.1927,0.2015,0.202,0.1984,0.204,0.2051,0.2068,0.2122,0.2132,0.2107,0.2111,0.2182,0.2189,0.2195,0.231,0.2229,0.2232,0.2233,0.2383,0.2387,0.2389,0,0,0,0,0,0,0.1915,0.1925,0.2012,0.1977,0.1989,0.2042,0.206,0.2069,0.2123,0.2135,0.2145,0.2158,0.2183,0.2192,0.226,0.2309,0.2233,0.2235,0.238,0.2384,0.2388,0.2463,0,0,0,0,0,0,0.1911,0.1924,0.1952,0.1977,0.1991,0.2062,0.206,0.207,0.2128,0.2134,0.2181,0.2188,0.2184,0.2256,0.2263,0.2311,0.2237,0.2377,0.2382,0.2387,0.2458,0.2469,0.2479,0,0,0,0,0,0.1907,0.1938,0.1952,0.1964,0.2022,0.2064,0.2073,0.2111,0.213,0.2162,0.22,0.2188,0.2292,0.2261,0.2267,0.2318,0.2375,0.2381,0.2386,0.2453,0.2467,0.2479,0,0,0,0,0,0,0.1907,0.1948,0.1964,0.2009,0.2049,0.2075,0.2115,0.2137,0.2191,0.2213,0.2218,0.2228,0.2308,0.2305,0.2271,0.2379,0.2333,0.234,0.2381,0.2394,0.2405,0.241,0.2239,0,0,0,0,0,0.1917,0.1956,0.199,0.2034,0.2055,0.2093,0.2122,0.2152,0.2193,0.222,0.2251,0.229,0.2329,0.2357,0.2388,0.2443,0.2443,0.2483,0.2493,0.2502,0.2514,0.2555,0.257,0.2408,0.2408,0.2408,0,0,0.193,0.1961,0.1983,0.2038,0.2072,0.2112,0.2115,0.2179,0.2224,0.222,0.2306,0.2334,0.2355,0.2421,0.2456,0.243,0.2551,0.251,0.2517,0.2523,0.2563,0.2578,0.2592,0.2412,0.2412,0.2411,0,0,0.196,0.2004,0.2039,0.2076,0.2139,0.2162,0.219,0.2244,0.2287,0.2358,0.2374,0.2436,0.249,0.2517,0.2533,0.2624,0.261,0.2642,0.2699,0.2739,0.2752,0.2764,0.2787,0.28,0.2643,0.2644,0.2644,0,0.1972,0.2023,0.2058,0.21,0.214,0.2188,0.2234,0.228,0.2355,0.2394,0.2402,0.2511,0.2532,0.2608,0.2646,0.2648,0.2664,0.2643,0.2752,0.2763,0.2774,0.2794,0.2808,0.2648,0.2647,0.2647,0.2647,0,0.2012,0.2069,0.2099,0.2164,0.2211,0.2268,0.2324,0.2389,0.2443,0.2481,0.2585,0.2622,0.2682,0.2705,0.2705,0.28,0.2785,0.2761,0.2713,0.2795,0.2811,0.2824,0.2654,0.2653,0.2651,0.265,0,0,0.1991,0.2102,0.2118,0.2157,0.2254,0.2288,0.2382,0.2461,0.2523,0.2604,0.2682,0.2764,0.2793,0.2816,0.2834,0.2876,0.2966,0.2862,0.2862,0.2874,0.3057,0.2873,0.2868,0.2966,0.2968,0.2971,0.3038,0,0.2013,0.2094,0.2153,0.224,0.2282,0.2363,0.2435,0.2519,0.2597,0.2684,0.2749,0.2832,0.2832,0.2878,0.2925,0.2962,0.3004,0.295,0.2985,0.2986,0.2803,0.2877,0.2979,0.3047,0.305,0.3052,0.3054,0,0.2021,0.2079,0.2165,0.2272,0.23,0.2364,0.2487,0.2561,0.2688,0.2755,0.2852,0.2902,0.3005,0.2982,0.3086,0.3056,0.3073,0.3086,0.3088,0.2897,0.2824,0.295,0.3076,0.3074,0.3072,0.3071,0.3069,0,0.1963,0.2082,0.2154,0.2192,0.2319,0.2384,0.246,0.2587,0.2666,0.2813,0.2885,0.2993,0.3069,0.3116,0.3162,0.3139,0.3253,0.321,0.3058,0.3045,0.3155,0.3142,0.3278,0.3278,0.3278,0.3278,0.3278,0,0.194,0.2,0.2138,0.2172,0.2261,0.2361,0.247,0.2565,0.2712,0.2792,0.2921,0.2993,0.3113,0.3185,0.3199,0.3167,0.3284,0.308,0.3054,0.3186,0.3176,0.3163,0.3149,0.328,0.328,0.3279,0.3279,0,0.1862,0.1957,0.204,0.2185,0.2238,0.2301,0.2476,0.254,0.2698,0.2811,0.2868,0.3035,0.3115,0.32,0.3281,0.3196,0.3192,0.3151,0.3302,0.3281,0.2946,0.2936,0.2971,0.2965,0.2961,0.2956,0.2953,0,0.1826,0.1864,0.203,0.208,0.2156,0.2271,0.2343,0.2519,0.2587,0.28,0.2831,0.2987,0.3066,0.3033,0.3138,0.3149,0.3115,0.3088,0.3001,0.2946,0.2918,0.2915,0.2911,0.2945,0.2944,0.2942,0.2941,0,0.175,0.1829,0.1895,0.2002,0.2091,0.2172,0.2289,0.2327,0.2506,0.2678,0.2722,0.2768,0.2854,0.2906,0.2947,0.2947,0.3087,0.3035,0.3044,0.2962,0.2915,0.2891,0.2893,0.2924,0.2926,0.2928,0.2929,0,0.1696,0.1721,0.182,0.1896,0.1999,0.2031,0.2112,0.2179,0.227,0.2492,0.25,0.2658,0.2814,0.2803,0.2839,0.283,0.2778,0.2673,0.27,0.2721,0.2608,0.2509,0.2381,0,0,0,0,0,0.1627,0.164,0.1703,0.177,0.1862,0.1921,0.2052,0.2133,0.2304,0.2268,0.2377,0.2437,0.2488,0.2583,0.2523,0.274,0.2798,0.2659,0.2693,0.2829,0.2848,0.274,0,0,0,0,0,0,0.1579,0.1634,0.1655,0.1646,0.1665,0.1745,0.1817,0.1933,0.1923,0.2106,0.2149,0.2291,0.2385,0.2494,0.2477,0.2505,0.2475,0.2769,0.2763,0.2817,0.2835,0.2851,0.2747,0,0,0,0,0]},{"header":{"parameterUnit":"m.s-1","parameterCategory":2,"la1":30.2991,"la2":30.254,"lo1":-89.0895,"lo2":-89.0444,"dy":0.0017,"dx":0.0017,"nx":28,"ny":28,"refTime":"2025-01-15T03:00:00:Z","depth":"4","parameterNumber":3,"parameterNumberName":"V-component_of_CURRENTS"},"data":[0,0,0,0,0,0,0,0,0,0,0,0,0,0,0,0,0,0,0,0,0,0,0,0,0,0,0,0,0,0,0,0,0,0,0,0,0,0,0,0,0,0,0,0,0,0,0,0,0,0,0,0,0,0,0,0,0,0,0.0251,0.0251,0,0.0216,0.0215,0.0215,0.0191,0.0191,0.0191,0.0191,0.0137,0.0136,0.0135,0,0,0,0,0,0,0,0,0,0,0,0,0,0.0271,0.0271,0.0252,0.0251,0.0251,0.0216,0.0215,0.0215,0.0191,0.0191,0.0191,0.0191,0.0138,0.0136,0.0134,0,0,0,0,0,0,0,0,0,0,0,0,0,0.025,0.0271,0.0252,0.0236,0.0234,0.0216,0.0215,0.0214,0.0191,0.0191,0.0191,0.0191,0.0138,0.0136,0.0134,0.0122,0,0,0.0128,0.0127,0,0,0,0,0,0,0,0,0.0252,0.025,0.0239,0.0237,0.0235,0.0209,0.0202,0.0183,0.0191,0.0206,0.0191,0.0191,0.0161,0.0157,0.0148,0.012,0.0118,0.0128,0.0126,0.0125,0.0125,0,0,0,0,0,0,0,0.0253,0.0251,0.0236,0.0238,0.0236,0.0221,0.0218,0.0198,0.0183,0.0205,0.0203,0.0201,0.0159,0.015,0.0147,0.0117,0.0128,0.0126,0.0125,0.0124,0.0072,0.0071,0,0,0,0,0,0,0.0262,0.0252,0.0237,0.0235,0.0245,0.0221,0.0218,0.0216,0.0183,0.0179,0.0201,0.02,0.0154,0.0149,0.0145,0.0136,0.0126,0.0124,0.0122,0.0072,0.0071,0.0071,0,0,0,0,0,0,0.0262,0.0261,0.0239,0.0244,0.024,0.0221,0.0219,0.0216,0.0209,0.0181,0.0176,0.02,0.0154,0.0148,0.0131,0.0134,0.0123,0.0121,0.0072,0.0072,0.0071,0.0114,0,0,0,0,0,0,0.0263,0.0261,0.0266,0.0245,0.024,0.023,0.0219,0.0215,0.0209,0.0207,0.0178,0.0173,0.0153,0.0134,0.0129,0.013,0.0119,0.0072,0.0072,0.0071,0.0113,0.0115,0.0117,0,0,0,0,0,0.0264,0.027,0.0266,0.0264,0.0246,0.0231,0.0227,0.0212,0.0209,0.0206,0.0188,0.0174,0.0129,0.0133,0.0127,0.0127,0.0072,0.0072,0.0071,0.0112,0.0115,0.0117,0,0,0,0,0,0,0.0279,0.0267,0.0263,0.0264,0.0251,0.0227,0.0226,0.0216,0.0199,0.0201,0.0174,0.0167,0.0152,0.0133,0.0138,0.011,0.0097,0.0096,0.013,0.0132,0.0135,0.0148,0.0117,0,0,0,0,0,0.0285,0.0288,0.027,0.0272,0.0268,0.0248,0.0242,0.0232,0.0215,0.0208,0.0188,0.0166,0.0145,0.0135,0.0113,0.01,0.0072,0.0095,0.0097,0.0099,0.0105,0.0059,0.0058,0.007,0.007,0.007,0,0,0.0292,0.0286,0.0287,0.0276,0.0265,0.0266,0.0244,0.0238,0.0238,0.0205,0.0199,0.0174,0.0143,0.0128,0.012,0.0114,0.0081,0.0099,0.0101,0.0105,0.0059,0.0058,0.0057,0.007,0.007,0.007,0,0,0.0307,0.0301,0.0309,0.0302,0.0292,0.0281,0.0282,0.0262,0.0252,0.0242,0.0217,0.0194,0.0166,0.0142,0.0127,0.0128,0.0095,0.0121,0.0144,0.01,0.0099,0.0097,0.0063,0.0058,0.0122,0.0122,0.0123,0,0.0316,0.0326,0.0308,0.0315,0.0318,0.0292,0.0304,0.0288,0.0265,0.026,0.0247,0.0201,0.0172,0.0151,0.015,0.0133,0.0107,0.0138,0.0104,0.0102,0.0099,0.0064,0.0059,0.0124,0.0124,0.0124,0.0124,0,0.0336,0.0347,0.0351,0.0356,0.0354,0.0359,0.034,0.0332,0.0319,0.0304,0.028,0.0235,0.021,0.0192,0.0172,0.0145,0.0131,0.0113,0.01,0.0101,0.0064,0.0057,0.0127,0.0127,0.0126,0.0126,0,0,0.0352,0.0365,0.0368,0.0386,0.038,0.0384,0.0381,0.0374,0.0383,0.0342,0.0342,0.0289,0.0266,0.0246,0.0209,0.0167,0.0125,0.0139,0.0135,0.0111,0.0034,0.0026,0.0017,0.0101,0.01,0.0099,0.0016,0,0.0376,0.0407,0.0404,0.0439,0.0456,0.0439,0.0441,0.0431,0.0418,0.0409,0.0348,0.0336,0.0286,0.0279,0.0225,0.0157,0.0109,0.015,0.0032,0.0028,0.0025,0.0009,0.0096,0.001,0.0009,0.0008,0.0007,0,0.0399,0.0421,0.0459,0.0492,0.0498,0.0512,0.0527,0.0527,0.05,0.0491,0.0458,0.0416,0.0354,0.0309,0.018,0.021,0.0127,0.0063,0.0058,0.0032,0.0007,0.0006,-0.0006,-0.0005,-0.0004,-0.0003,-0.0003,0,0.0426,0.0463,0.0501,0.0511,0.0534,0.055,0.0561,0.0553,0.0575,0.0548,0.0562,0.0473,0.0443,0.0322,0.0189,0.0185,0.0043,0.0019,-0.0072,-0.0073,-0.0058,-0.0056,-0.0082,-0.0082,-0.0082,-0.0082,-0.0081,0,0.0453,0.0486,0.0521,0.0542,0.0596,0.0593,0.0646,0.0642,0.0652,0.0686,0.0611,0.0609,0.0444,0.0345,0.0209,0.0053,0.0054,-0.007,-0.0098,-0.0038,-0.0033,-0.0063,-0.006,-0.0085,-0.0084,-0.0083,-0.0083,0,0.0474,0.0493,0.0546,0.0588,0.0612,0.0649,0.0719,0.0755,0.0755,0.0794,0.0792,0.0714,0.0584,0.0412,0.0217,0.0095,-0.0062,-0.0122,-0.0034,-0.0055,-0.0155,-0.0148,-0.0231,-0.0232,-0.0233,-0.0233,-0.0234,0,0.0485,0.0515,0.0589,0.0633,0.0658,0.0723,0.0772,0.0804,0.0851,0.0858,0.0877,0.0775,0.0695,0.0425,0.0231,-0.0033,-0.0078,-0.0166,-0.0178,-0.0153,-0.0172,-0.0164,-0.0156,-0.0235,-0.0236,-0.0236,-0.0236,0,0.0511,0.0539,0.0585,0.0677,0.0744,0.0826,0.0896,0.0941,0.0971,0.0981,0.0951,0.0808,0.0659,0.0435,0.0231,0.0038,-0.0113,-0.0176,-0.0176,-0.0188,-0.0159,-0.0176,-0.0167,-0.0239,-0.0239,-0.0239,-0.0238,0,0.0533,0.0569,0.0634,0.0716,0.0808,0.0892,0.0931,0.098,0.1023,0.1024,0.1011,0.0847,0.0754,0.0472,0.0285,0.0094,0.0035,-0.0043,-0.0051,-0.005,0.002,0.0084,0.0053,0,0,0,0,0,0.055,0.0592,0.067,0.0757,0.0851,0.0906,0.0999,0.103,0.1064,0.1053,0.1035,0.0895,0.0619,0.0506,0.0314,0.0249,-0.0009,0.0014,-0.0105,-0.0257,-0.0253,-0.0204,0,0,0,0,0,0,0.0558,0.0627,0.0665,0.0779,0.0845,0.0951,0.1012,0.1037,0.1032,0.1035,0.0901,0.0832,0.0573,0.0731,0.0307,0.025,0.0142,-0.0109,-0.0114,-0.0259,-0.0255,-0.0252,-0.0201,0,0,0,0,0]}]]